DW9686 Weather Reports


time (UTC)temp
F
wind
direction
speed
knots
gust
knots
rain 1hr
in
rain 24hr
in
rain mn
in
humidity
%
barometer
mb
20260510110032 51 232 3.5 6.1 0.00 0.00 0.00 75 1014.6
20260510104532 51 215 2.6 4.3 0.00 0.00 0.00 74 1014.5
20260510103030 53 213 2.6 5.2 0.00 0.00 0.00 72 1014.6
20260510101530 54 212 2.6 4.3 0.00 0.00 0.00 70 1014.6
20260510100046 54 205 1.7 3.5 0.00 0.00 0.00 70 1014.6
20260510094549 54 205 1.7 3.5 0.00 0.00 0.00 71 1014.7
20260510093037 54 205 1.7 3.5 0.00 0.00 0.00 70 1014.7
20260510091534 54 205 1.7 3.5 0.00 0.00 0.00 69 1014.9
20260510090044 54 205 1.7 3.5 0.00 0.00 0.00 71 1015.1
20260510084531 54 205 2.6 3.5 0.00 0.00 0.00 73 1015.3
20260510083033 53 205 0.9 2.6 0.00 0.00 0.00 74 1015.3
20260510081548 54 205 1.7 4.3 0.00 0.00 0.00 73 1015.5
20260510080035 56 205 2.6 5.2 0.00 0.00 0.00 68 1015.5
20260510074535 57 205 2.6 4.3 0.00 0.00 0.00 65 1015.3
20260510073034 57 205 2.6 4.3 0.00 0.00 0.00 64 1015.4
20260510071540 57 201 2.6 4.3 0.00 0.00 0.00 64 1015.4
20260510070039 57 201 2.6 4.3 0.00 0.00 0.00 66 1015.5
20260510064534 58 201 2.6 4.3 0.00 0.00 0.00 64 1015.4
20260510063035 59 201 2.6 5.2 0.00 0.00 0.00 62 1015.6
20260510061534 59 196 2.6 4.3 0.00 0.00 0.00 62 1015.6
20260510060033 59 194 2.6 3.5 0.00 0.00 0.00 63 1015.6
20260510054535 60 194 1.7 3.5 0.00 0.00 0.00 62 1015.7
20260510053035 61 194 1.7 3.5 0.00 0.00 0.00 62 1015.8
20260510051530 62 194 0.9 2.6 0.00 0.00 0.00 59 1015.8
20260510050032 63 194 1.7 2.6 0.00 0.00 0.00 59 1015.9
20260510044536 65 194 0.9 2.6 0.00 0.00 0.00 54 1015.9
20260510043034 66 194 0.9 2.6 0.00 0.00 0.00 51 1016.0
20260510041533 66 194 0.9 1.7 0.00 0.00 0.00 51 1016.0
20260510040032 67 194 0.9 2.6 0.00 0.00 0.00 50 1016.0
20260510034556 67 0 0.0 0.0 0.00 0.00 0.00 51 1016.0
20260510033032 68 0 0.0 0.0 0.00 0.00 0.00 51 1015.9
20260510031534 69 194 0.0 2.6 0.00 0.00 0.00 52 1015.9
20260510030034 71 0 0.0 0.0 0.00 0.00 0.00 45 1015.8
20260510024537 72 0 0.0 0.0 0.00 0.00 0.00 46 1015.9
20260510023034 72 0 0.0 0.0 0.00 0.00 0.00 43 1015.9
20260510021533 73 0 0.0 1.7 0.00 0.00 0.00 44 1016.2
20260510020036 74 194 0.9 2.6 0.00 0.00 0.00 45 1016.2
20260510014541 74 194 0.0 1.7 0.00 0.00 0.00 42 1016.3
20260510013035 74 0 0.0 0.0 0.00 0.00 0.00 42 1016.3
20260510011540 74 194 1.7 3.5 0.00 0.00 0.00 39 1016.5
20260510010034 74 0 0.0 0.0 0.00 0.00 0.00 37 1016.7
20260510004531 75 0 0.0 2.6 0.00 0.00 0.00 36 1016.9
20260510003031 75 195 0.0 3.5 0.00 0.00 0.00 36 1017.0
20260510001532 75 198 0.9 3.5 0.00 0.00 0.00 36 1017.0
20260510000054 75 198 0.0 4.3 0.00 0.00 0.00 35 1017.2
20260509234546 75 198 1.7 4.3 0.00 0.00 0.00 37 1017.2
20260509233032 75 200 0.0 5.2 0.00 0.00 0.00 37 1017.5
20260509231532 74 180 2.6 4.3 0.00 0.00 0.00 36 1017.6
20260509230035 74 207 0.9 5.2 0.00 0.00 0.00 36 1017.8
20260509224532 74 208 1.7 4.3 0.00 0.00 0.00 39 1017.9
20260509223032 74 208 1.7 4.3 0.00 0.00 0.00 42 1018.3
20260509221532 74 208 0.0 4.3 0.00 0.00 0.00 39 1018.4
20260509220032 73 208 1.7 4.3 0.00 0.00 0.00 41 1018.5
20260509214532 73 208 0.0 3.5 0.00 0.00 0.00 43 1018.7
20260509213038 72 208 1.7 3.5 0.00 0.00 0.00 46 1018.9
20260509211532 72 208 0.9 4.3 0.00 0.00 0.00 47 1019.0
20260509210041 71 208 1.7 4.3 0.00 0.00 0.00 45 1019.2
20260509204540 71 208 2.6 7.0 0.00 0.00 0.00 45 1019.2
20260509203031 71 172 1.7 5.2 0.00 0.00 0.00 46 1019.4
20260509201539 71 173 2.6 6.1 0.00 0.00 0.00 46 1019.6
20260509200041 70 167 2.6 5.2 0.00 0.00 0.00 51 1019.7
20260509194537 70 167 0.9 8.7 0.00 0.00 0.00 46 1019.9
20260509193034 69 163 1.7 6.1 0.00 0.00 0.00 47 1020.1
20260509191534 68 165 1.7 8.7 0.00 0.00 0.00 47 1020.1
20260509190033 69 155 0.9 7.8 0.00 0.00 0.00 46 1020.4
20260509184543 68 158 2.6 6.1 0.00 0.00 0.00 49 1020.5
20260509183035 67 160 3.5 6.1 0.00 0.00 0.00 51 1020.6
20260509181533 67 159 4.3 7.0 0.00 0.00 0.00 49 1020.6
20260509180032 66 153 0.9 6.1 0.00 0.00 0.00 52 1020.8
20260509174536 66 148 2.6 5.2 0.00 0.00 0.00 50 1020.9
20260509173032 64 148 1.7 5.2 0.00 0.00 0.00 50 1020.9
20260509171536 64 123 1.7 3.5 0.00 0.00 0.00 52 1020.9
20260509170036 64 0 0.0 2.6 0.00 0.00 0.00 52 1020.9
20260509164532 63 0 0.0 3.5 0.00 0.00 0.00 55 1021.2
20260509163034 62 0 0.9 2.6 0.00 0.00 0.00 57 1021.3
20260509161534 60 123 0.9 3.5 0.00 0.00 0.00 63 1021.3
20260509160037 59 0 0.0 3.5 0.00 0.00 0.00 69 1021.3
20260509154532 58 123 1.7 6.1 0.00 0.00 0.00 73 1021.3
20260509153042 57 111 1.7 3.5 0.00 0.00 0.00 75 1021.4
20260509151531 56 109 0.9 2.6 0.00 0.00 0.00 77 1021.2
20260509150040 54 110 1.7 3.5 0.00 0.00 0.00 79 1021.3
20260509144548 53 109 1.7 5.2 0.00 0.00 0.00 79 1021.1
20260509143034 52 109 0.9 5.2 0.00 0.00 0.00 80 1021.0
20260509141534 51 101 1.7 2.6 0.00 0.00 0.00 81 1020.9
20260509140033 50 101 0.0 5.2 0.00 0.00 0.00 81 1020.8
20260509134550 50 90 1.7 3.5 0.00 0.00 0.00 81 1020.6
20260509133037 49 0 0.0 3.5 0.00 0.00 0.00 82 1020.5
20260509131537 48 84 1.7 6.1 0.00 0.00 0.00 81 1020.2
20260509130046 48 0 0.0 0.0 0.00 0.00 0.00 81 1020.1
20260509124535 47 0 0.9 3.5 0.00 0.00 0.00 83 1020.0
20260509123033 46 0 0.0 0.0 0.00 0.00 0.00 81 1020.1
20260509121542 47 0 0.0 0.0 0.00 0.00 0.00 80 1019.9
20260509120033 48 0 0.0 0.0 0.00 0.00 0.00 78 1019.9
20260509114537 49 0 0.0 2.6 0.00 0.00 0.00 78 1019.9
20260509113036 49 272 2.6 5.2 0.00 0.00 0.00 77 1019.9
20260509111531 50 272 2.6 5.2 0.00 0.00 0.00 73 1019.8